Skip Page Navigation
NASA JPL Caltech
NASA Logo - Jet Propulsion Laboratory + View the NASA Portal
+ Center for Near-Earth Object Studies
JPL Home Earth Solar System Stars & Galaxies Technology
JPL Solar System Dynamics
BODIES ORBITS EPHEMERIDES TOOLS PHYSICAL DATA DISCOVERY FAQ SITE MAP
IMPORTANT: The SSD Announcement email list is now available. Major changes are coming in the near future, including possible hostname and/or URL changes. To be notified of such changes, subscribe to this email list.

Please visit this page for more details.


JPL Small-Body Database Browser
Search: [ help ]  
59443 (1999 GV30)
Classification: Main-belt Asteroid          SPK-ID: 2059443
Ephemeris | Orbit Diagram | Orbital Elements | Mission Design | Physical Parameters | Discovery Circumstances ]

[ show orbit diagram ]
Orbital Elements at Epoch 2458600.5 (2019-Apr-27.0) TDB
Reference: JPL 16 (heliocentric ecliptic J2000)
 Element Value Uncertainty (1-sigma)   Units 
e .1444080841197489 4.4219e-08  
a 2.6827533521921 2.1678e-08 au
q 2.295342080436205 1.1913e-07 au
i 12.81524546736486 5.5516e-06 deg
node 42.2998464825052 2.4205e-05 deg
peri 236.0730738321456 4.2905e-05 deg
M 141.9127212514172 4.3468e-05 deg
tp 2457967.813783196288
(2017-Aug-02.31378320)
0.00018869 TDB
period 1604.97970894249
4.39
1.9454e-05
5.326e-08
d
yr
n .2243019011356857 2.7187e-09 deg/d
Q 3.070164623947995 2.4809e-08 au
  Orbit Determination Parameters
   # obs. used (total)      657  
   data-arc span      8442 days (23.11 yr)  
   first obs. used      1996-10-16  
   last obs. used      2019-11-27  
   planetary ephem.      DE431  
   SB-pert. ephem.      SB431-N16  
   condition code      0  
   norm. resid. RMS      .61046  
   source      ORB  
   producer      Otto Matic  
   solution date      2019-Dec-04 05:12:45  

Additional Information
 Earth MOID = 1.30638 au 
 Jupiter MOID = 2.08844 au 
 T_jup = 3.325 
[ show covariance matrix ]

Ephemeris | Orbit Diagram | Orbital Elements | Mission Design | Physical Parameters | Discovery Circumstances ]

Physical Parameter Table
Parameter Symbol Value Units Sigma Reference Notes
absolute magnitude H 15.0   n/a MPO502546  

59443 (1999 GV30)          Discovered 1999-Apr-07 by LINEAR at Socorro
Reference: 20030614/Numbers.arcLast Updated: 2004-04-19

Alternate Designations
 1999 GV30 = 2000 SN3 
Ephemeris | Orbit Diagram | Orbital Elements | Mission Design | Physical Parameters | Discovery Circumstances ]
ABOUT SSD CREDITS/AWARDS PRIVACY/COPYRIGHT GLOSSARY LINKS
FirstGov 2020-Jan-18 00:55 UT
(server date/time)  
NASA Home Page
Site Manager:   Ryan S. Park
Webmaster  Alan B. Chamberlin